This is the latest recevied weather packets stored in our database for station/object IR3AS. If no packets are shown the sender has not sent any weather packets the latest 10 day(s).
| Time | Temp. | Humidity | Pressure | Rain* | Wind** | Luminosity | Snow |
|---|---|---|---|---|---|---|---|
| 1787939698 | 13.33° C | 77% | 865.6 hPa | 0 mm | - | - | - |
| 1787939397 | 13.89° C | 75% | 864.5 hPa | 0 mm | - | - | - |
| 1787939128 | 13.89° C | 73% | 865.4 hPa | 0 mm | - | - | - |
| 1787939097 | 13.89° C | 73% | 865.4 hPa | 0 mm | - | - | - |
| 1787938797 | 15° C | 69% | 866.6 hPa | 0 mm | - | - | - |
| 1787938497 | 14.44° C | 69% | 867.4 hPa | 0 mm | - | - | - |
| 1787938229 | 14.44° C | 70% | 867 hPa | 0 mm | - | - | - |
| 1787938197 | 14.44° C | 70% | 867 hPa | 0 mm | - | - | - |
| 1787937897 | 14.44° C | 70% | 867.9 hPa | 0 mm | - | - | - |
| 1787937597 | 15° C | 69% | 868.1 hPa | 0 mm | - | - | - |
| 1787937298 | 15.56° C | 67% | 867.5 hPa | 0 mm | - | - | - |
| 1787936997 | 15.56° C | 67% | 868.6 hPa | 0 mm | - | - | - |
| 1787936697 | 15.56° C | 65% | 868.6 hPa | 0 mm | - | - | - |
| 1787936397 | 15.56° C | 64% | 868.2 hPa | 0 mm | - | - | - |
| 1787936099 | 15.56° C | 63% | 867.2 hPa | 0 mm | - | - | - |
| 1787935797 | 15.56° C | 66% | 866.9 hPa | 0 mm | - | - | - |
| 1787935498 | 15.56° C | 66% | 867.1 hPa | 0 mm | - | - | - |
| 1787935197 | 15.56° C | 67% | 868.5 hPa | 0 mm | - | - | - |
| 1787934934 | 15.56° C | 67% | 868.9 hPa | 0 mm | - | - | - |
| 1787934898 | 15.56° C | 67% | 868.9 hPa | 0 mm | - | - | - |
| 1787934597 | 15.56° C | 67% | 868.8 hPa | 0 mm | - | - | - |
| 1787934297 | 16.11° C | 66% | 868.5 hPa | 0 mm | - | - | - |
| 1787933997 | 16.11° C | 65% | 868.6 hPa | 0 mm | - | - | - |
| 1787933731 | 16.11° C | 63% | 868.4 hPa | 0 mm | - | - | - |
| 1787933699 | 16.11° C | 63% | 868.4 hPa | 0 mm | - | - | - |
* Rain latest hour (hover to see other rain measurements)
** Current wind speed in m/s (hover to see current wind gust speed)